TimeEST,TemperatureF,Dew PointF,Humidity,Sea Level PressureIn,VisibilityMPH,Wind Direction,Wind SpeedMPH,Gust SpeedMPH,PrecipitationIn,Events,Conditions,WindDirDegrees,DateUTC
12:15 AM,33.8,19.4,56,29.71,10.0,West,11.5,17.3,N/A,,Clear,260,2014-02-14 05:15:00
12:35 AM,33.8,21.2,60,29.70,10.0,WSW,12.7,17.3,N/A,,Clear,250,2014-02-14 05:35:00
12:55 AM,33.8,21.2,60,29.70,10.0,WSW,12.7,17.3,N/A,,Clear,250,2014-02-14 05:55:00
1:15 AM,33.8,21.2,60,29.70,10.0,West,12.7,18.4,N/A,,Clear,260,2014-02-14 06:15:00
1:35 AM,33.8,23.0,65,29.70,10.0,West,10.4,19.6,N/A,,Clear,260,2014-02-14 06:35:00
1:55 AM,33.8,23.0,65,29.70,10.0,West,11.5,19.6,N/A,,Clear,270,2014-02-14 06:55:00
2:15 AM,33.8,23.0,65,29.70,10.0,West,12.7,18.4,N/A,,Clear,260,2014-02-14 07:15:00
2:35 AM,33.8,23.0,65,29.69,10.0,West,13.8,-,N/A,,Clear,260,2014-02-14 07:35:00
2:55 AM,33.8,23.0,65,29.70,10.0,West,15.0,21.9,N/A,,Clear,270,2014-02-14 07:55:00
3:15 AM,33.8,24.8,70,29.70,10.0,West,15.0,20.7,N/A,,Clear,260,2014-02-14 08:15:00
3:35 AM,33.8,24.8,70,29.69,10.0,West,15.0,21.9,N/A,,Clear,270,2014-02-14 08:35:00
3:55 AM,33.8,24.8,70,29.70,10.0,West,12.7,19.6,N/A,,Clear,270,2014-02-14 08:55:00
4:15 AM,33.8,26.6,75,29.70,10.0,West,11.5,-,N/A,,Clear,270,2014-02-14 09:15:00
4:35 AM,32.0,26.6,80,29.71,10.0,West,12.7,-,N/A,,Clear,260,2014-02-14 09:35:00
4:55 AM,32.0,26.6,80,29.72,10.0,West,9.2,17.3,N/A,,Clear,260,2014-02-14 09:55:00
5:15 AM,32.0,26.6,80,29.71,10.0,West,9.2,-,N/A,,Clear,260,2014-02-14 10:15:00
5:35 AM,32.0,26.6,80,29.73,10.0,West,10.4,-,N/A,,Clear,260,2014-02-14 10:35:00
5:55 AM,32.0,26.6,80,29.73,10.0,West,12.7,-,N/A,,Clear,260,2014-02-14 10:55:00
6:15 AM,32.0,26.6,80,29.72,10.0,West,9.2,16.1,N/A,,Clear,260,2014-02-14 11:15:00
6:35 AM,32.0,26.6,80,29.73,10.0,WSW,10.4,-,N/A,,Clear,250,2014-02-14 11:35:00
6:55 AM,32.0,26.6,80,29.73,10.0,West,8.1,-,N/A,,Clear,260,2014-02-14 11:55:00
7:15 AM,32.0,26.6,80,29.74,10.0,WSW,9.2,-,N/A,,Clear,250,2014-02-14 12:15:00
7:35 AM,32.0,26.6,80,29.75,10.0,WSW,5.8,-,N/A,,Clear,240,2014-02-14 12:35:00
7:55 AM,30.2,26.6,86,29.75,10.0,SW,6.9,-,N/A,,Clear,220,2014-02-14 12:55:00
8:15 AM,30.2,26.6,86,29.77,10.0,WSW,5.8,-,N/A,,Clear,240,2014-02-14 13:15:00
8:35 AM,32.0,26.6,80,29.78,10.0,WSW,8.1,-,N/A,,Clear,240,2014-02-14 13:35:00
8:55 AM,32.0,26.6,80,29.78,10.0,WSW,9.2,-,N/A,,Clear,240,2014-02-14 13:55:00
9:15 AM,32.0,26.6,80,29.78,10.0,WSW,6.9,-,N/A,,Clear,250,2014-02-14 14:15:00
9:35 AM,33.8,28.4,81,29.78,10.0,WSW,9.2,-,N/A,,Clear,250,2014-02-14 14:35:00
9:55 AM,35.6,28.4,75,29.79,10.0,West,9.2,19.6,N/A,,Clear,260,2014-02-14 14:55:00
10:15 AM,35.6,28.4,75,29.79,10.0,WSW,11.5,16.1,N/A,,Clear,250,2014-02-14 15:15:00
10:35 AM,35.6,28.4,75,29.80,10.0,West,8.1,-,0.01,,Mostly Cloudy,260,2014-02-14 15:35:00
10:55 AM,37.4,30.2,75,29.80,10.0,West,13.8,-,0.01,,Mostly Cloudy,270,2014-02-14 15:55:00
11:15 AM,37.4,30.2,75,29.79,10.0,West,12.7,17.3,0.01,,Scattered Clouds,280,2014-02-14 16:15:00
11:35 AM,39.2,30.2,70,29.80,10.0,West,8.1,-,0.02,,Clear,280,2014-02-14 16:35:00
11:55 AM,41.0,30.2,65,29.80,10.0,WNW,11.5,18.4,0.04,,Clear,300,2014-02-14 16:55:00
12:15 PM,39.2,30.2,70,29.78,10.0,West,11.5,-,0.01,,Scattered Clouds,270,2014-02-14 17:15:00
12:35 PM,41.0,30.2,65,29.76,10.0,West,6.9,-,0.03,,Scattered Clouds,280,2014-02-14 17:35:00
12:55 PM,39.2,30.2,70,29.75,10.0,WSW,6.9,-,0.05,,Scattered Clouds,250,2014-02-14 17:55:00
1:15 PM,41.0,30.2,65,29.74,10.0,WSW,3.5,-,0.02,,Mostly Cloudy,250,2014-02-14 18:15:00
1:35 PM,41.0,30.2,65,29.73,10.0,WNW,5.8,-,0.02,,Mostly Cloudy,290,2014-02-14 18:35:00
1:55 PM,42.8,30.2,61,29.70,10.0,SW,3.5,-,0.02,,Mostly Cloudy,230,2014-02-14 18:55:00
2:15 PM,42.8,30.2,61,29.71,10.0,Calm,Calm,-,N/A,,Mostly Cloudy,0,2014-02-14 19:15:00
2:35 PM,42.8,30.2,61,29.69,10.0,NW,3.5,-,N/A,,Overcast,320,2014-02-14 19:35:00
2:55 PM,41.0,32.0,70,29.69,10.0,NNE,3.5,-,N/A,,Overcast,30,2014-02-14 19:55:00
3:15 PM,41.0,32.0,70,29.70,10.0,NNE,4.6,-,N/A,,Overcast,20,2014-02-14 20:15:00
3:35 PM,41.0,32.0,70,29.71,10.0,North,3.5,-,N/A,,Overcast,10,2014-02-14 20:35:00
3:55 PM,41.0,32.0,70,29.69,10.0,NE,3.5,-,N/A,,Scattered Clouds,50,2014-02-14 20:55:00
4:15 PM,41.0,32.0,70,29.66,10.0,East,6.9,-,N/A,,Mostly Cloudy,80,2014-02-14 21:15:00
4:35 PM,39.2,32.0,75,29.65,10.0,East,4.6,-,N/A,,Overcast,100,2014-02-14 21:35:00
4:55 PM,39.2,32.0,75,29.65,10.0,ESE,6.9,-,N/A,,Drizzle,110,2014-02-14 21:55:00
5:15 PM,37.4,32.0,81,29.65,10.0,ESE,3.5,-,N/A,Rain,Light Rain,120,2014-02-14 22:15:00
5:35 PM,37.4,32.0,81,29.64,7.0,ESE,8.1,-,N/A,Rain,Light Rain,120,2014-02-14 22:35:00
5:55 PM,37.4,33.8,87,29.65,5.0,South,3.5,-,0.02,Rain,Light Rain,170,2014-02-14 22:55:00
6:15 PM,37.4,33.8,87,29.64,4.0,SW,8.1,-,0.03,Rain,Rain,230,2014-02-14 23:15:00
6:35 PM,37.4,35.6,93,29.64,7.0,SW,4.6,-,0.05,Rain,Rain,230,2014-02-14 23:35:00
6:55 PM,37.4,35.6,93,29.64,7.0,WSW,3.5,-,0.08,Rain,Rain,240,2014-02-14 23:55:00
7:15 PM,37.4,35.6,93,29.65,5.0,West,4.6,-,0.03,Rain,Rain,270,2014-02-15 00:15:00
7:35 PM,37.4,37.4,100,29.64,5.0,West,6.9,-,0.07,Rain,Rain,270,2014-02-15 00:35:00
7:55 PM,37.4,37.4,100,29.64,7.0,West,6.9,-,0.10,Rain,Light Rain,260,2014-02-15 00:55:00
8:15 PM,37.4,35.6,93,29.64,7.0,WSW,8.1,-,0.02,Rain,Light Rain,250,2014-02-15 01:15:00
8:35 PM,37.4,35.6,93,29.64,7.0,WSW,4.6,-,0.04,Rain,Light Rain,240,2014-02-15 01:35:00
8:55 PM,37.4,35.6,93,29.64,5.0,WSW,5.8,-,0.08,Rain,Rain,240,2014-02-15 01:55:00
9:15 PM,37.4,35.6,93,29.64,7.0,WSW,10.4,16.1,0.03,Rain,Light Rain,240,2014-02-15 02:15:00
9:35 PM,37.4,35.6,93,29.64,7.0,WSW,8.1,-,0.06,Rain,Light Rain,240,2014-02-15 02:35:00
9:55 PM,37.4,35.6,93,29.63,7.0,WSW,4.6,-,0.09,Rain,Light Rain,240,2014-02-15 02:55:00
10:15 PM,37.4,35.6,93,29.63,10.0,West,9.2,-,0.01,Rain,Light Rain,260,2014-02-15 03:15:00
10:35 PM,35.6,35.6,100,29.63,10.0,West,5.8,-,0.03,Rain,Light Rain,280,2014-02-15 03:35:00
10:55 PM,33.8,33.8,100,29.64,5.0,NNW,6.9,-,0.05,Rain,Rain,340,2014-02-15 03:55:00
11:15 PM,32.0,32.0,100,29.65,2.5,NNW,4.6,-,0.01,Snow,Light Snow,330,2014-02-15 04:15:00
11:35 PM,32.0,32.0,100,29.65,2.0,North,9.2,-,0.01,,Overcast,350,2014-02-15 04:35:00
11:55 PM,32.0,32.0,100,29.66,2.0,North,10.4,17.3,0.01,Snow,Light Snow,360,2014-02-15 04:55:00